#timestamp,LO_Frequency,Hit,StdDev 
1502359215.2,286046999.3,N,1.2
1502359235.1,286046998.9,N,1.1
1502359236.0,286046998.9,N,1.1
1502359255.8,286046998.4,N,1.1
1502359275.6,286047001.1,N,1.2
1502359295.5,286047001.2,N,1.3
1502359315.3,286046998.8,N,1.2
1502359335.2,286046999.2,N,1.2
1502359355.0,286046999.4,N,1.2
1502359355.9,286046999.4,N,1.2
1502359375.7,286046998.7,N,1.1
1502359395.6,286046999.3,N,1.1
1502359415.4,286046996.8,N,1.2
1502359435.3,286046997.3,N,1.2
1502359455.1,286046997.8,N,1.2
1502359475.8,286046998.0,N,1.2
1502359495.7,286046995.3,Y,0.0
1502359515.5,286046997.1,P,0.8
1502359535.4,286046997.0,P,0.8
1502359555.2,286046996.7,P,0.8
1502359575.0,286046996.8,Y,0.0
1502359576.0,286046996.8,P,0.3
1502359595.8,286047000.6,N,1.7
1502359615.6,286047002.8,N,2.4
1502359635.5,286047000.5,N,2.2
1502359655.3,286047000.6,N,2.1
1502359675.1,286047000.5,N,1.9
1502359695.9,286047000.3,N,1.8
1502359715.7,286047000.0,N,1.7
1502359735.6,286047000.3,N,1.6
1502359755.4,286047000.9,N,1.6
1502359775.2,286047000.3,N,1.5
1502359795.1,286047000.4,N,1.4
1502359796.0,286047000.4,N,1.4
1502359815.8,286047000.4,N,1.3
1502359835.7,286046998.1,N,1.4
1502359855.5,286046998.7,N,1.4
1502359875.3,286046996.5,N,1.6
1502359895.2,286046999.2,N,1.5
1502359915.0,286046998.4,N,1.5
1502359915.9,286046998.4,N,1.5
1502359935.8,286046998.6,N,1.5
1502359955.6,286046998.2,N,1.5
1502359975.4,286047000.6,N,1.5
1502359995.3,286047000.3,N,1.4
1502360015.1,286047000.3,N,1.4
1502360035.8,286047000.1,N,1.4
1502360055.7,286047001.2,N,1.4
1502360075.5,286046998.6,N,1.4
1502360095.4,286046998.1,N,1.4
1502360115.2,286046999.4,N,1.3
1502360135.0,286046999.3,N,1.2
1502360135.9,286046999.3,N,1.2
1502360155.8,286046997.1,N,1.2
1502360175.6,286046997.0,N,1.2
1502360195.5,286046996.5,N,1.3
1502360215.3,286046996.6,N,1.4
1502360235.1,286046999.5,N,1.4
1502360255.9,286046996.5,N,1.4
1502360275.7,286046997.2,N,1.4
1502360295.6,286046997.7,N,1.4
1502360315.4,286046997.4,N,1.4
1502360335.2,286046997.2,N,1.4
1502360355.1,286046999.4,N,1.3
1502360356.0,286046999.4,N,1.3
1502360375.8,286046999.6,N,1.3
1502360395.6,286046996.9,N,1.4
1502360415.5,286046996.7,N,1.3
1502360435.3,286046997.2,N,1.4
1502360455.2,286046997.1,N,1.4
1502360475.9,286046997.5,N,1.4
1502360495.7,286046996.8,N,1.4
1502360515.6,286046997.5,N,1.4
1502360535.4,286046996.6,N,1.4
1502360555.3,286046999.4,N,1.3
1502360575.1,286046997.6,N,1.3
1502360595.8,286046997.0,N,1.2
1502360615.7,286046996.7,N,1.1
1502360635.5,286046997.1,N,1.1
1502360655.4,286046996.8,N,1.1
1502360675.2,286046997.4,N,1.0
1502360695.0,286046997.3,N,1.0
1502360695.9,286046997.3,N,0.9
1502360715.8,286046997.0,Y,0.0
1502360735.6,286047000.5,P,1.5
1502360755.5,286046999.8,N,1.3
1502360775.3,286046999.8,N,1.1
1502360795.1,286047002.3,N,1.6
1502360815.9,286047002.6,N,1.7
1502360835.7,286047002.5,N,1.8
1502360855.6,286047001.5,N,1.7
1502360875.4,286047002.2,N,1.6
1502360895.2,286047002.0,N,1.6
1502360915.1,286047001.5,N,1.5
1502360916.0,286047001.5,N,1.4
1502360935.8,286047003.9,N,1.6
1502360955.7,286047001.9,N,1.5
1502360975.5,286047001.8,N,1.5
1502360995.3,286047001.7,N,1.4
1502361015.2,286047004.2,N,1.5
1502361035.0,286047003.8,N,1.6
1502361035.9,286047003.8,N,1.6
1502361055.8,286047004.2,N,1.6
1502361075.6,286047004.3,N,1.7
1502361095.4,286047003.9,N,1.7
1502361115.3,286047003.8,N,1.7
1502361135.1,286047003.7,N,1.7
1502361155.9,286047005.6,Y,0.0
1502361175.7,286047001.8,P,0.2
1502361195.5,286047001.5,P,0.3
1502361215.4,286047004.0,P,1.0
1502361235.2,286047004.3,Y,0.0
1502361255.1,286047000.3,P,1.0
1502361256.0,286047000.3,N,1.0
1502361275.8,286047000.6,N,0.9
1502361295.6,286047000.3,N,0.8
1502361315.5,286047000.0,N,0.8
1502361335.3,286047000.0,N,0.8
1502361355.1,286046999.8,N,0.8
1502361375.9,286047000.3,N,0.7
1502361395.7,286046999.8,N,0.7
1502361415.6,286047002.8,Y,0.0
1502361435.4,286047000.6,P,0.1
1502361455.2,286047000.5,P,0.1
1502361475.1,286047002.6,P,0.9
1502361476.0,286047002.6,N,1.0
1502361495.8,286046999.8,N,1.1
1502361515.7,286046999.8,N,1.1
1502361535.5,286047002.7,N,1.2
1502361555.3,286047002.1,N,1.2
1502361575.2,286047001.7,N,1.1
1502361595.0,286047001.9,N,1.1
1502361595.9,286047001.9,N,1.1
1502361615.8,286047001.7,N,1.0
1502361635.6,286047002.1,N,1.0
1502361655.4,286047001.7,N,1.0
1502361675.3,286047001.9,N,0.9
1502361695.1,286047002.1,N,0.9
1502361715.9,286047001.6,N,0.9
1502361735.7,286047002.2,N,0.9
1502361755.5,286047002.5,N,0.9
1502361775.4,286047002.6,N,0.9
1502361795.2,286047002.1,N,0.9
1502361815.0,286047002.4,N,0.9
1502361816.0,286047002.4,N,0.9
1502361835.8,286047002.2,N,0.8
1502361855.6,286047002.5,N,0.8
1502361875.5,286046999.7,N,0.9
1502361895.3,286047002.7,N,0.9
1502361915.1,286047002.0,N,0.9
1502361935.9,286047001.9,N,0.9
1502361955.7,286047002.0,N,0.8
1502361975.6,286047001.5,N,0.8
1502361995.4,286047001.9,N,0.8
1502362015.2,286047001.9,N,0.8
1502362035.1,286047001.9,N,0.8
1502362036.0,286047001.9,N,0.7
1502362055.8,286047001.6,N,0.5
1502362075.7,286047001.6,N,0.5
1502362095.5,286047001.7,Y,0.0
1502362115.3,286047002.3,P,0.2
1502362135.2,286047002.8,P,0.4
1502362155.0,286047002.4,P,0.3
1502362155.9,286047002.4,Y,0.0
1502362175.8,286046998.2,P,2.1
1502362195.6,286046998.8,N,1.8
1502362215.4,286046998.9,N,1.6
1502362235.3,286046999.1,N,1.5
1502362255.1,286046998.8,N,1.4
1502362275.9,286046998.8,N,1.3
1502362295.7,286046998.8,N,1.2
1502362315.5,286046999.0,N,1.1
1502362335.4,286046999.3,N,1.1
1502362355.2,286046999.4,N,1.0
1502362375.1,286046998.9,N,1.0
1502362376.0,286046998.9,N,1.0
1502362395.8,286046999.3,N,0.9
1502362415.6,286046998.5,N,0.9
1502362435.5,286047000.6,N,1.0
1502362455.3,286047000.4,N,1.0
1502362475.2,286047000.6,N,1.0
1502362495.0,286047001.1,N,1.0
1502362495.9,286047001.1,N,1.1
1502362515.7,286047000.7,N,1.1
1502362535.6,286046998.1,N,1.1
1502362555.4,286046998.5,N,1.1
1502362575.3,286046998.8,N,1.1
1502362595.1,286046998.8,N,1.1
1502362615.8,286046998.1,N,1.1
1502362635.7,286046998.6,N,1.1
1502362655.5,286047000.8,N,1.1
1502362675.4,286047000.0,N,1.1
1502362695.2,286046998.5,N,1.1
1502362715.0,286046998.5,N,0.9
1502362715.9,286046998.5,N,0.9
1502362735.8,286046998.2,N,0.9
1502362755.6,286047000.5,N,0.9
1502362775.5,286046999.8,N,0.9
1502362795.3,286047000.3,N,1.0
